Location: Bodest
(46.3000°N, 22.5667°E)
Time: 12:34:49
(UTC+00:00)

FENGYUN 1C DEB - Visible Passes

Search period start: 02 April 2023 00:00
Search period end: 12 April 2023 00:00
Orbit: 806 x 917 km, 98.8° (Epoch: 01 April)

Date Brightness Start Highest point End Pass type
(mag) Time Alt. Az. Time Alt. Az. Time Alt. Az.
02 Apr ? 18:20:06 10° S 18:25:47 55° W 18:31:27 10° NNW visible
03 Apr ? 18:11:21 10° S 18:17:08 64° WSW 18:22:51 10° NNW visible
04 Apr ? 18:02:40 10° S 18:08:29 74° WSW 18:14:14 10° NNW visible
04 Apr ? 19:48:30 10° WSW 19:50:17 11° W 19:52:05 10° WNW visible
05 Apr ? 17:54:01 10° SSE 17:59:50 86° WSW 18:05:35 10° NNW visible
05 Apr ? 19:38:41 10° WSW 19:41:30 14° W 19:44:20 10° WNW visible
06 Apr ? 17:45:23 10° SSE 17:51:12 83° ENE 17:56:55 10° NNW visible
06 Apr ? 19:29:14 10° SW 19:32:44 16° W 19:36:14 10° NW visible
07 Apr ? 17:36:48 10° SSE 17:42:34 71° ENE 17:48:14 10° N visible
07 Apr ? 19:19:58 10° SW 19:23:59 19° W 19:27:59 10° NW visible
08 Apr ? 17:28:16 10° SSE 17:33:57 61° ENE 17:39:32 10° N visible
08 Apr ? 19:10:49 10° SW 19:15:15 22° W 19:19:38 10° NW visible
09 Apr ? 19:01:45 10° SSW 19:06:29 26° W 19:11:12 10° NW visible
10 Apr ? 18:52:46 10° SSW 18:57:46 30° W 19:02:44 10° NW visible
11 Apr ? 18:43:49 10° SSW 18:49:03 35° W 18:54:12 10° NNW visible
